Location: Newark
(9.4667°S, 159.8167°E)
Time: 07:40:58
(UTC+00:00)

Vanguard 1 - Pass Details

Date: 22 November 2019
Orbit: 652 x 3831 km, 34.3° (Epoch: 07 December)

Event Time Altitude Azimuth Distance (km) Brightness Sun altitude
Rises 11:52:33 0° 249° (WSW) 4,981 14.1 -55.2°
Reaches altitude 10° 11:56:05 10° 237° (WSW) 4,410 13.7 -55.7°
Maximum altitude 12:06:58 29° 181° (S) 4,190 13.3 -56.9°
Drops below altitude 10° 12:23:29 10° 128° (SE) 6,668 14.3 -58.5°
Sets 12:30:47 0° 117° (ESE) 7,924 14.8 -59.1°
